Location: Oberwangen
(47.4286°N, 8.9679°E)
Time: 14:27:32
(UTC+00:00)

Nimbus 7 Rocket - Pass Details

Date: 20 June 2021
Orbit: 923 x 964 km, 99.4° (Epoch: 03 August)

Event Time Altitude Azimuth Distance (km) Brightness Sun altitude
Rises 23:18:04 0° 14° (NNE) 3,648 8.9 -19.1°
Reaches altitude 10° 23:20:31 10° 14° (NNE) 2,702 7.9 -19.1°
Maximum altitude 23:26:35 85° 288° (WNW) 974 4.4 -19.1°
Enters shadow 23:29:46 30° 201° (SSW) 1,642 5.2 -19.1°
